Weather History for KIZG - October, 2011

Change the Weather History Date:

Wednesday, October 26, 2011

  Actual Average Record
Temperature  
Mean Temperature 40 °F -  
Max Temperature 50 °F 52 °F 73 °F (2000)
Min Temperature 30 °F 29 °F 18 °F (1997)
Degree Days  
Heating Degree Days 25    
Moisture  
Dew Point 33 °F    
Average Humidity 72    
Maximum Humidity 93    
Minimum Humidity 48    
Precipitation  
Precipitation 0.00 in - - ()
Sea Level Pressure  
Sea Level Pressure 29.87 in    
Wind  
Wind Speed 3 mph (West)    
Max Wind Speed 8 mph    
Max Gust Speed 17 mph    
Visibility 10 miles    
Events      
Averages and records for this station are not official NWS values.
T = Trace of Precipitation, MM = Missing Value Source: NWS Daily Summary

Daily Weather History Graph

Daily Weather History Graph

Search for Another Location

Airport or City:

Trip Planner

Search our weather history database for the weather conditions in past years. The results will help you decide how hot, cold, wet, or windy it might be!

Date:

Astronomy

Oct. 26, 2011 Rise Set
Actual Time 7:11 AM EDT 5:42 PM EDT
Civil Twilight 6:42 AM EDT 6:12 PM EDT
Nautical Twilight 6:08 AM EDT 6:46 PM EDT
Astronomical Twilight 5:35 AM EDT 7:19 PM EDT
Moon 6:57 AM EDT (10/26) 5:20 PM EDT (10/26)
Length of Visible Light 11h 30m
Length of Day
10h 30m
Waning Crescent, 0% of the Moon is Illuminated
Oct 26
Waning Crescent
Oct 26
New
Nov 2
First Quarter
Nov 10
Full
Nov 18
Last Quarter

Hourly Weather History & Observations

Time (EDT) Temp. Windchill Dew Point Humidity Pressure Visibility Wind Dir Wind Speed Gust Speed Precip Events Conditions
12:54 AM 42.1 °F 39.2 °F 30.9 °F 65% 29.93 in 10.0 mi West 4.6 mph - N/A   Clear
1:54 AM 44.1 °F 40.1 °F 30.0 °F 58% 29.93 in 10.0 mi WNW 6.9 mph - N/A   Clear
2:54 AM 41.0 °F 39.0 °F 30.0 °F 65% 29.93 in 10.0 mi WSW 3.5 mph - N/A   Clear
3:54 AM 43.0 °F 38.8 °F 30.9 °F 62% 29.92 in 10.0 mi West 6.9 mph - N/A   Clear
4:54 AM 43.0 °F 38.2 °F 30.0 °F 60% 29.91 in 10.0 mi West 8.1 mph 17.3 mph N/A   Clear
5:54 AM 39.0 °F 35.7 °F 30.9 °F 73% 29.92 in 10.0 mi SW 4.6 mph - N/A   Clear
6:54 AM 34.0 °F - 30.0 °F 85% 29.93 in 10.0 mi Calm Calm - N/A   Clear
7:54 AM 30.9 °F - 28.9 °F 92% 29.94 in 10.0 mi Calm Calm - N/A   Partly Cloudy
8:54 AM 37.0 °F - 33.1 °F 86% 29.94 in 10.0 mi Calm Calm - N/A   Mostly Cloudy
9:54 AM 44.1 °F - 33.1 °F 65% 29.92 in 10.0 mi Calm Calm - N/A   Overcast
10:54 AM 44.1 °F - 34.0 °F 68% 29.92 in 10.0 mi Calm Calm - N/A   Overcast
11:54 AM 46.0 °F 44.8 °F 30.9 °F 56% 29.90 in 10.0 mi NNW 3.5 mph - N/A   Overcast
12:54 PM 48.9 °F - 30.0 °F 48% 29.85 in 10.0 mi Calm Calm - N/A   Overcast
1:54 PM 48.0 °F - 30.9 °F 52% 29.83 in 10.0 mi Calm Calm - N/A   Overcast
3:54 PM 50.0 °F - 30.9 °F 48% 29.81 in 10.0 mi Calm Calm - N/A   Mostly Cloudy
4:54 PM 48.0 °F - 37.0 °F 66% 29.79 in 10.0 mi Calm Calm - N/A   Partly Cloudy
6:54 PM 41.0 °F - 37.9 °F 89% 29.80 in 10.0 mi Calm Calm - N/A   Overcast
7:54 PM 42.1 °F - 37.9 °F 85% 29.80 in 10.0 mi Calm Calm - N/A   Overcast
8:54 PM 42.1 °F - 37.9 °F 85% 29.81 in 10.0 mi Calm Calm - N/A   Overcast
9:54 PM 41.0 °F - 39.0 °F 93% 29.81 in 10.0 mi Calm Calm - N/A   Overcast
10:54 PM 42.1 °F - 39.0 °F 89% 29.80 in 10.0 mi Calm Calm - N/A   Overcast
11:54 PM 41.0 °F - 39.0 °F 93% 29.78 in 10.0 mi Calm Calm - N/A   Overcast